Location: Holcomb Observatory
(44.4922°N, 73.1654°W)
Time: 23:29:50
(UTC-05:00)

Cosmos 2360 Rocket - Visible Passes

Search period start: 19 December 2014 00:00
Search period end: 29 December 2014 00:00
Orbit: 835 x 845 km, 71.0° (Epoch: 19 December)

Date Brightness Start Highest point End Pass type
(mag) Time Alt. Az. Time Alt. Az. Time Alt. Az.
19 Dec 3.8 04:40:59 10° SSE 04:45:59 34° ESE 04:51:00 10° NE visible
19 Dec 2.6 06:24:37 10° SW 06:29:53 39° WNW 06:35:11 10° NNE visible
20 Dec 3.9 04:25:29 10° SSE 04:30:24 32° ESE 04:35:20 10° NE visible
20 Dec 2.5 06:08:56 10° SW 06:14:15 42° WNW 06:19:36 10° NNE visible
21 Dec 3.9 04:10:01 10° SSE 04:14:50 30° ESE 04:19:39 10° NE visible
21 Dec 2.5 05:53:15 10° SW 05:58:38 44° WNW 06:04:02 10° NNE visible
22 Dec 4.0 03:56:00 17° SSE 03:59:15 28° ESE 04:03:59 10° NE visible
22 Dec 2.4 05:38:03 12° SW 05:43:00 46° WNW 05:48:27 10° NNE visible
23 Dec 4.0 03:43:34 26° ESE 03:43:41 26° ESE 03:48:18 10° NE visible
23 Dec 2.3 05:25:28 35° WSW 05:27:23 49° WNW 05:32:52 10° NNE visible
24 Dec 4.4 03:29:56 21° ENE 03:29:56 21° ENE 03:32:36 10° NE visible
24 Dec 2.3 05:11:47 52° WNW 05:11:47 52° WNW 05:17:17 10° NNE visible
25 Dec 4.8 03:15:48 14° ENE 03:15:48 14° ENE 03:16:54 10° NE visible
25 Dec 2.7 04:57:38 43° NNW 04:57:38 43° NNW 05:01:42 10° NNE visible
25 Dec 3.9 06:39:29 10° WNW 06:41:30 12° NW 06:43:30 10° NNW visible
26 Dec 3.4 04:43:11 30° N 04:43:11 30° N 04:46:07 10° NNE visible
26 Dec 3.9 06:25:00 12° NW 06:25:49 12° NW 06:28:06 10° NNW visible
27 Dec 3.9 04:28:33 22° NNE 04:28:33 22° NNE 04:30:31 10° NNE visible
27 Dec 3.9 06:10:21 13° NW 06:10:21 13° NW 06:12:40 10° NNW visible
28 Dec 4.3 04:13:47 16° NNE 04:13:47 16° NNE 04:14:56 10° NNE visible
28 Dec 4.0 05:55:35 13° NNW 05:55:35 13° NNW 05:57:13 10° N visible
